This is the latest recevied weather packets stored in our database for station/object KC5DP. If no packets are shown the sender has not sent any weather packets the latest 10 day(s).
| Time | Temp. | Humidity | Pressure | Rain* | Wind** | Luminosity | Snow |
|---|---|---|---|---|---|---|---|
| 1777466880 | 21.11° C | 99% | 1014.7 hPa | 0 mm | - | 84 W/m² | - |
| 1777466578 | 21.11° C | 99% | 1014.7 hPa | 0 mm | - | 65 W/m² | - |
| 1777466274 | 21.11° C | 99% | 1014.7 hPa | 0 mm | - | 59 W/m² | - |
| 1777465970 | 21.11° C | 99% | 1014.3 hPa | 0 mm | - | 65 W/m² | - |
| 1777465667 | 20.56° C | 99% | 1014.3 hPa | 0 mm | - | 49 W/m² | - |
| 1777465362 | 20.56° C | 99% | 1014.1 hPa | 0 mm | - | 58 W/m² | - |
| 1777465061 | 20.56° C | 99% | 1014.2 hPa | 0 mm | - | 47 W/m² | - |
| 1777464757 | 20° C | 99% | 1014.2 hPa | 0 mm | - | 39 W/m² | - |
| 1777464453 | 20° C | 99% | 1014.2 hPa | 0 mm | - | 39 W/m² | - |
| 1777464149 | 20° C | 99% | 1014.1 hPa | 0 mm | - | 31 W/m² | - |
| 1777463849 | 20° C | 99% | 1014.1 hPa | 0 mm | - | 25 W/m² | - |
| 1777463545 | 20° C | 99% | 1014.1 hPa | 0 mm | - | 21 W/m² | - |
| 1777463240 | 20° C | 99% | 1014 hPa | 0 mm | - | 17 W/m² | - |
| 1777462936 | 20° C | 99% | 1013.8 hPa | 0 mm | - | 13 W/m² | - |
| 1777462632 | 20° C | 99% | 1013.7 hPa | 0 mm | - | 9 W/m² | - |
| 1777462327 | 20° C | 99% | 1013.7 hPa | 0 mm | - | 6 W/m² | - |
| 1777462024 | 20° C | 99% | 1013.6 hPa | 0 mm | - | 4 W/m² | - |
| 1777461721 | 20° C | 99% | 1013.4 hPa | 0 mm | - | 3 W/m² | - |
| 1777461421 | 20° C | 99% | 1013.4 hPa | 0 mm | - | 1 W/m² | - |
| 1777461118 | 20° C | 99% | 1013.1 hPa | 0 mm | - | 1 W/m² | - |
| 1777460813 | 20° C | 99% | 1013.2 hPa | 0 mm | - | 0 W/m² | - |
| 1777460509 | 20° C | 99% | 1013 hPa | 0 mm | - | 0 W/m² | - |
| 1777460205 | 20.56° C | 99% | 1013.2 hPa | 0 mm | - | 0 W/m² | - |
| 1777459902 | 20.56° C | 99% | 1013 hPa | 0 mm | - | 0 W/m² | - |
| 1777459599 | 20.56° C | 99% | 1013.1 hPa | 0 mm | - | 0 W/m² | - |
* Rain latest hour (hover to see other rain measurements)
** Current wind speed in m/s (hover to see current wind gust speed)